Weather Roundup
Issued by NWS Chicago, IL

Home | Current Version | Previous Version | Text Only | Print | Product List | Glossary Off
Versions: 1 2 3 4 5 6 7 8 9 10 11 12 13 14 15 16 17 18 19 20 21 22 23 24 25 26 27 28 29 30 31 32 33 34 35 36 37 38 39 40 41 42 43 44 45 46 47 48 49 50

000
NZUS59 KLOT 261108
HRRLOT

CHICAGO AREA WEATHER ROUNDUP
NATIONAL WEATHER SERVICE CHICAGO/ROMEOVILLE IL
600 AM CDT TUE MAY 26 2015

NOTE: "FAIR" INDICATES FEW OR NO CLOUDS BELOW 12,000 FEET WITH NO
SIGNIFICANT WEATHER AND/OR OBSTRUCTIONS TO VISIBILITY.

* THESE STATIONS ARE NOT UNDER NWS QUALITY CONTROL. THEY ALSO MAY NOT
  REPORT WEATHER SUCH AS PRECIPITATION OR FOG.

ILZ005-006-012>014-019>023-261200-
NORTHEAST ILLINOIS

CITY           SKY/WX    TMP DP  RH WIND       PRES   REMARKS
OHARE          CLOUDY    68  64  87 S9        29.93S
MIDWAY         CLOUDY    70  65  84 S12       29.94S
AURORA         CLOUDY    67  63  87 SE7       29.92F FOG
LANSING*       CLOUDY    67  63  87 S9G16     29.96F
JOLIET*        CLOUDY    69  66  91 S7        29.94S
WAUKEGAN       CLOUDY    66  64  93 S10       29.93R
DUPAGE AIRPORT CLOUDY    67  65  93 S14       29.92F
WHEELING       CLOUDY    68  64  87 S9        29.94F
KANKAKEE*      CLOUDY    68  65  90 S10       29.96S
MORRIS*        CLOUDY    67  65  91 S8        29.92R FOG
LEWIS AIRPORT* CLOUDY    67  64  90 S12       29.94S
NORTHERLY IS     N/A     68  63  84 S16         N/A
$$

WIZ051-052-058>065-066-070>072-261200-
SOUTHEAST WISCONSIN

CITY           SKY/WX    TMP DP  RH WIND       PRES   REMARKS
MILWAUKEE      PTCLDY    66  62  87 S10       29.91R
KENOSHA*       PTCLDY    67  64  90 S9        29.93R
RACINE*        PTCLDY    67  63  87 SW8       29.94R
BURLINGTON     CLEAR     64  62  95 S6        29.92R
WAUKESHA       PTCLDY    64  63  94 S9        29.92R
WEST BEND      CLEAR     64  61  88 S5        29.90R
$$

INZ001>003-010>013-019-020-261200-
NORTHWEST INDIANA

CITY           SKY/WX    TMP DP  RH WIND       PRES   REMARKS
GARY*          CLOUDY    70  66  88 S9        29.97R
MICHIGAN CITY* NOT AVBL
RENSSELAER*    NOT AVBL
VALPARAISO     CLOUDY    66  64  93 S8        29.99S FOG
$$

LMZ740>746-261200-
SOUTHERN LAKE MICHIGAN

STATION/POSITION TIME  SKY/WX   TEMP WIND        PRES    VSBY
                                AIR  DIR/SP/G
                 (UTC)          (F)  (DEG/KT/KT) (MB)    (MI)
HARRISON CRIB    1000            65  180/ 17/ 18   N/A
BURNHAM HARBOR   1100            68  190/ 10/ 16   N/A
CALUMET HARBOR   1012            67  180/  5/ 11   N/A
BURNS HARBOR     1000            67  180/  9/ 15 1015.2R
MICHIGAN CITY    1000            67  150/ 13/ 18   N/A
$$

ABBREVIATIONS USED IN REMARKS
   TC - TEMPERATURE IN CELSIUS
  WCI - WIND CHILL INDEX
   HX - HEAT INDEX
  VSB - VISIBILITY
$$


USA.gov is the U.S. government's official web portal to all federal, state and local government web resources and services.